Preview of NWS' New Version of Forecast
This preview is not operational and should not be used for support decisions.

Regional Weather Roundup (RWR)

Issued by National Weather Service (NWS)

                            
000
ASUS45 KCYS 190110
RWRWY 

WYOMING REGIONAL WEATHER ROUNDUP
NATIONAL WEATHER SERVICE CHEYENNE WY
700 PM MDT TUE JUN 18 2019

NOTE:  "FAIR" INDICATES FEW OR NO CLOUDS BELOW 12,000 FEET
WITH NO SIGNIFICANT WEATHER AND/OR OBSTRUCTIONS TO VISIBILITY.

WYZ001-190200-
YELLOWSTONE NATIONAL PARK
  
CITY           SKY/WX    TMP DP  RH WIND       PRES   REMARKS
LK YELLOWSTONE NOT AVBL                                               
W YELLOWSTONE  NOT AVBL                                               

$$
WYZ002>013-054>058-071-098>099-190200-
NORTHERN WYOMING
  
CITY           SKY/WX    TMP DP  RH WIND       PRES   REMARKS
JACKSON        TSTM      55  44  66 NW22G35   30.16R                  
CODY           FAIR      66  49  54 N12       29.98R                  
GREYBULL       FAIR      78  45  30 N21G33    29.86R                  
WORLAND        PTSUNNY   72  51  47 W7        29.88R THUNDER          
SHERIDAN       TSTM      62  53  72 NW33G43   29.92R SQUALL           
BUFFALO        FAIR      67  52  58 W6        29.95S                  
GILLETTE       PTSUNNY   62  57  83 SE14      29.92F                  
NEWCASTLE      FAIR      63  52  67 SE8       29.97                   

$$
WYZ014>020-022>026-101>103-190200-
CENTRAL WYOMING
  
CITY           SKY/WX    TMP DP  RH WIND       PRES   REMARKS
BIG PINEY      FAIR      66  42  41 NW16G26   30.12S                  
PINEDALE       MOCLDY    63  37  39 W13       30.13                   
DUBOIS         MOCLDY    61  36  39 NW10      30.10                   
LANDER         FAIR      71  46  40 E6        29.94S                  
RIVERTON       FAIR      72  46  39 E9        29.95S                  
CASPER         FAIR      64  54  69 S6        29.97F                  
DOUGLAS        FAIR      64  50  60 S8        29.98F                  

$$
WYZ021-027>030-104>119-190200-
SOUTHERN WYOMING
  
CITY           SKY/WX    TMP DP  RH WIND       PRES   REMARKS
EVANSTON       FAIR      66  36  32 W15       30.15F                  
KEMMERER       FAIR      63  43  48 W13       30.14                   
FORT BRIDGER   FAIR      68  43  40 N13       30.16F                  
ROCK SPRINGS   FAIR      61  45  55 W7        30.11R                  
DIXON          FAIR      62  43  48 SE9G22    30.13S                  
RAWLINS        FAIR      63  41  44 W14       30.09R                  
SARATOGA       FAIR      57  45  62 SE8       30.12S                  
LARAMIE        FAIR      50  44  80 S7        30.11F                  
CHEYENNE       PTSUNNY   57  52  83 S5        30.08S                  
TORRINGTON     LGT RAIN  61  56  83 SE7       29.98R                  
PINE BLUFFS    FAIR      59  54  82 SW3       30.02F                  

$$
  

000
ASUS45 KCYS 190110
RWRWY 

WYOMING REGIONAL WEATHER ROUNDUP
NATIONAL WEATHER SERVICE CHEYENNE WY
700 PM MDT TUE JUN 18 2019

NOTE:  "FAIR" INDICATES FEW OR NO CLOUDS BELOW 12,000 FEET
WITH NO SIGNIFICANT WEATHER AND/OR OBSTRUCTIONS TO VISIBILITY.

WYZ001-190200-
...YELLOWSTONE NATIONAL PARK...
  
CITY           SKY/WX    TMP DP  RH WIND       PRES   REMARKS
LK YELLOWSTONE NOT AVBL                                               
W YELLOWSTONE  NOT AVBL                                               

$$
WYZ002>013-054>058-071-098>099-190200-
...NORTHERN WYOMING...
  
CITY           SKY/WX    TMP DP  RH WIND       PRES   REMARKS
JACKSON        TSTM      55  44  66 NW22G35   30.16R                  
CODY           PTSUNNY   66  49  54 N12       29.98R                  
GREYBULL       CLOUDY    78  45  30 N21G33    29.86R                  
WORLAND        CLOUDY    72  51  47 W7        29.88R THUNDER          
SHERIDAN       TSTM      62  53  72 NW33G43   29.92R SQUALL           
BUFFALO        PTSUNNY   67  52  58 W6        29.95S                  
GILLETTE       PTSUNNY   62  57  83 SE14      29.92F                  
HULETT         NOT AVBL                                               
NEWCASTLE      FAIR      63  52  67 SE8       29.97R                  

$$
WYZ014>020-022>026-101>103-190200-
...CENTRAL WYOMING...
  
CITY           SKY/WX    TMP DP  RH WIND       PRES   REMARKS
BIG PINEY      MOSUNNY   66  42  41 NW16G26   30.12S                  
PINEDALE       PTSUNNY   63  37  39 W13       30.13R                  
DUBOIS         PTSUNNY   61  36  39 NW10      30.10R                  
LANDER         PTSUNNY   71  46  40 E6        29.94S                  
RIVERTON       PTSUNNY   72  46  39 E9        29.95S                  
CASPER         PTSUNNY   64  54  69 S6        29.97F                  
DOUGLAS        PTSUNNY   64  50  60 S8        29.98F                  

$$
WYZ021-027>030-104>119-190200-
...SOUTHERN WYOMING...
  
CITY           SKY/WX    TMP DP  RH WIND       PRES   REMARKS
EVANSTON       PTSUNNY   66  36  32 W15       30.15F                  
KEMMERER       SUNNY     63  45  51 W9        30.15F                  
FORT BRIDGER   FAIR      68  43  40 N13       30.16F                  
ROCK SPRINGS   CLOUDY    61  45  55 W7        30.11R                  
DIXON          FAIR      62  43  48 SE9G22    30.13S                  
RAWLINS        MOSUNNY   63  41  44 W14       30.09R                  
SARATOGA       FAIR      57  45  62 SE8       30.12S                  
LARAMIE        CLOUDY    50  44  80 S7        30.11F                  
CHEYENNE       CLOUDY    57  52  83 S5        30.08S                  
TORRINGTON     LGT RAIN  61  56  83 SE7       29.98R                  
PINE BLUFFS    FAIR      59  54  82 SW3       30.02F                  

$$